SCP
0 0 0 0 0 0 0 0 0 0 0 0 0 0 0 0 0 0 0 0 0 0 0 0 0 0 0 0 1 1 1 1 0 0 0 0 0 0 0 0 0 0 0 0
0 0 0 0 0 0 0 0 0 0 0 0 0 0 0 0 0 0 0 0 0 0 0 0 0 1 1 1 1 1 1 1 0 0 0 0 0 0 0 0 0 0 0 0
0 0 0 0 0 0 0 0 0 0 0 0 0 0 0 0 0 0 0 0 0 0 0 1 1 1 1 1 1 1 1 1 1 0 0 0 0 0 0 0 0 0 0 0
0 0 0 0 0 0 0 0 0 0 0 0 0 0 0 0 0 0 0 0 0 0 0 1 1 1 1 1 1 1 1 1 1 1 0 0 0 0 0 0 0 0 0 0
0 0 0 0 0 0 0 0 0 0 0 0 0 0 0 0 0 0 0 0 0 0 1 1 1 1 1 1 1 1 1 1 1 1 1 0 0 0 0 0 0 0 0 0
0 0 0 0 0 0 0 0 0 0 0 0 0 0 0 0 0 0 0 1 1 1 1 1 1 1 1 1 1 1 1 1 1 1 1 1 1 1 1 0 0 0 0 0
0 0 0 0 0 0 0 0 0 0 0 0 0 0 0 0 0 0 1 1 1 1 1 1 1 1 1 1 1 1 1 1 1 1 1 0 1 1 1 0 0 0 0 0
0 0 0 0 0 0 0 0 0 0 0 0 0 0 0 0 0 0 0 1 1 1 1 1 1 1 1 1 1 1 1 1 1 0 0 0 0 1 1 0 0 0 0 0
0 0 0 0 0 0 0 0 0 0 0 0 0 0 0 0 0 0 0 0 0 1 1 1 1 1 1 1 1 1 1 0 0 0 0 0 0 0 0 0 0 0 0 0
0 0 0 0 0 0 0 0 0 0 0 0 0 0 0 0 0 0 0 0 0 1 1 1 0 1 1 1 1 0 0 0 0 0 0 0 0 0 0 0 0 0 0 0
0 0 0 0 0 0 0 0 0 0 0 0 0 0 0 0 0 0 0 0 0 0 0 0 0 0 0 0 0 0 0 0 0 0 0 0 0 0 0 0 0 0 0 0
0 0 0 0 0 0 0 0 0 0 0 0 0 0 0 0 0 0 0 0 0 0 0 0 0 0 0 0 0 0 0 0 0 0 0 0 0 0 0 0 0 0 0 0
0 0 0 0 0 0 0 0 0 0 0 0 0 0 0 0 0 0 0 0 0 0 0 0 0 0 0 0 0 0 0 0 0 0 0 0 0 0 0 0 0 0 0 0
0 0 0 0 0 0 0 0 0 0 0 0 0 0 0 0 0 0 0 0 0 0 0 0 0 0 0 0 0 0 0 0 0 0 0 0 0 0 0 0 0 0 0 0
0 0 0 0 0 0 0 0 0 0 0 0 0 0 0 0 0 0 0 0 0 0 0 0 0 0 0 0 0 0 0 0 0 0 0 0 0 0 0 0 0 0 0 0
0 0 0 0 0 0 0 0 0 0 0 0 0 0 0 0 0 0 0 0 0 0 0 0 0 0 0 0 0 0 0 0 0 0 0 0 0 0 0 0 0 0 0 0
0 0 0 0 0 0 0 0 0 0 0 0 0 0 0 0 0 0 0 0 0 0 0 0 0 0 0 0 0 0 0 0 0 0 0 0 0 0 0 0 0 0 0 0
0 0 0 0 0 0 0 0 0 0 0 0 0 0 0 0 0 0 0 0 0 0 0 0 0 0 0 0 0 0 0 0 0 0 0 0 0 0 0 0 0 0 0 0
0 0 0 0 0 0 0 0 0 0 0 0 0 0 0 0 0 0 0 0 0 0 0 0 0 0 0 0 0 0 0 0 0 0 0 0 0 0 0 0 0 0 0 0
0 0 0 0 0 0 0 0 0 0 0 0 0 0 0 0 0 0 0 0 0 0 0 0 0 0 0 0 0 0 0 0 0 0 0 0 0 0 0 0 0 0 0 0
0 0 0 0 0 0 0 0 0 0 0 0 0 0 0 0 0 0 0 0 0 0 0 0 0 0 0 0 0 0 0 0 0 0 0 0 0 0 0 0 0 0 0 0
0 0 0 0 0 0 0 0 0 0 0 0 0 0 0 0 0 0 0 0 0 0 0 0 0 0 0 0 0 0 0 0 0 0 0 0 0 0 0 0 0 0 0 0
0 0 0 0 0 0 0 0 0 0 0 0 0 0 0 0 0 0 0 0 0 0 0 0 0 0 0 0 0 0 0 0 0 0 0 0 0 0 0 0 0 0 0 0
0 0 0 0 0 0 0 0 0 0 0 0 0 0 0 0 0 0 0 0 0 0 0 0 0 0 0 0 0 0 0 0 0 0 0 0 0 0 0 0 0 0 0 0
0 0 0 0 0 0 0 0 0 0 0 0 0 0 0 0 0 0 0 0 0 0 0 0 0 0 0 0 0 0 0 0 0 0 0 0 0 0 0 0 0 0 0 0
0 0 0 0 0 0 0 0 0 0 0 0 0 0 0 0 0 0 0 0 0 0 0 0 0 0 0 0 0 0 0 0 0 0 0 0 0 0 0 0 0 0 0 0
0 0 0 0 0 0 0 0 0 0 0 0 0 0 0 0 0 0 0 0 0 0 0 0 0 0 0 0 0 0 0 0 0 0 0 0 0 0 0 0 0 0 0 0
Wind_Speed
11 9 8 9 10 11 13 14 13 10 9 6 4 3 5 9 11 14 15 16 16 16 15 15 15 15 15 15 14 14 14 14 13 12 11 10 10 10 9 9 9 8 8 8
11 9 9 11 11 11 13 13 13 13 11 6 3 1 4 7 10 13 15 16 16 17 16 16 16 15 15 15 15 15 14 14 13 12 12 11 11 10 10 10 9 9 9 9
10 8 10 13 11 11 11 11 11 12 8 3 2 2 3 5 8 11 13 14 15 15 15 14 15 15 15 15 14 14 14 13 13 12 12 12 11 11 11 10 10 10 10 9
8 7 12 5 1 6 9 9 8 8 6 3 2 0 1 3 6 8 10 11 12 12 13 12 12 13 13 13 14 14 14 13 13 13 12 11 11 11 11 10 9 9 10 10
7 10 11 6 1 3 6 7 3 5 4 2 1 3 3 1 2 5 6 7 8 9 10 10 11 12 12 13 13 13 13 13 12 12 12 11 11 11 10 9 9 9 9 10
7 9 9 2 3 1 5 5 2 2 3 2 4 5 3 4 1 2 3 4 5 6 6 7 8 10 11 12 12 13 12 11 10 10 10 11 11 10 9 8 9 9 9 9
10 10 6 4 2 3 6 2 5 3 2 1 2 3 4 4 3 3 3 4 5 5 5 5 7 9 9 9 10 10 10 10 9 9 9 9 8 8 7 8 8 9 9 9
6 8 4 5 0 2 4 4 3 4 3 4 4 4 4 5 5 5 5 6 6 6 6 5 6 8 7 7 6 6 7 7 8 8 8 7 8 8 8 8 8 9 9 10
3 1 4 3 3 3 3 2 2 3 4 4 5 5 6 7 7 7 7 7 6 7 7 6 5 6 6 6 6 6 7 7 7 7 7 7 7 8 7 7 8 8 8 8
3 0 2 2 2 2 1 1 2 3 4 5 6 7 7 7 7 8 7 7 7 7 7 6 5 4 4 4 5 6 6 5 5 6 6 6 5 6 6 7 7 7 7 7
3 1 1 3 4 4 4 5 5 6 6 6 7 8 8 8 8 8 7 7 7 6 6 6 6 5 4 4 4 4 4 3 4 4 4 4 5 5 6 6 5 6 7 7
3 4 3 3 4 4 5 7 7 8 9 8 8 9 9 9 8 8 8 7 7 7 7 6 6 5 4 4 3 3 3 2 2 2 2 3 4 5 6 7 6 8 9 9
3 3 2 2 4 5 7 9 9 9 9 9 9 9 9 9 8 8 8 8 7 6 6 6 6 5 4 3 3 2 1 1 1 1 2 3 4 4 5 6 11 13 13 14
1 1 4 5 6 8 9 10 11 10 9 8 8 9 9 9 9 8 7 7 7 7 7 6 6 5 4 3 2 1 0 1 1 1 2 3 4 5 5 6 6 7 10 14
4 4 6 8 9 10 10 10 11 10 9 8 8 8 8 8 8 7 6 6 6 6 6 6 5 5 3 2 1 1 2 1 1 2 3 4 4 5 6 7 7 8 8 7
7 9 10 11 11 10 10 10 10 9 7 7 7 7 7 7 7 6 6 5 5 6 5 4 4 4 3 2 2 1 1 1 2 3 4 4 4 5 6 7 8 8 8 9
9 10 11 10 10 9 9 9 8 7 7 6 6 6 6 6 6 6 6 6 5 4 4 4 4 4 3 3 3 3 3 1 2 4 4 4 5 6 6 7 8 8 8 7
9 10 10 9 9 8 8 8 7 7 6 6 5 5 5 5 5 5 4 4 3 3 4 4 4 4 4 4 4 5 4 4 4 4 5 5 6 7 7 8 9 10 9 7
11 11 10 10 9 8 7 7 6 6 5 5 5 5 4 4 3 3 3 3 3 3 4 4 3 4 4 4 5 4 5 6 6 5 5 5 7 7 8 8 9 9 9 9
11 10 9 9 8 8 6 5 5 4 4 4 4 3 3 3 2 2 2 3 3 4 4 5 5 5 5 5 6 6 6 7 7 7 7 7 8 8 9 9 9 9 9 9
8 7 7 7 6 6 5 4 4 4 4 3 3 3 3 3 3 3 4 3 3 4 5 4 4 5 5 6 7 7 7 7 7 7 8 8 8 9 9 9 10 9 9 9
6 6 6 5 5 4 3 3 3 4 4 4 4 4 4 4 4 4 3 4 4 4 6 6 5 6 7 10 8 7 7 7 7 7 7 8 8 9 9 10 10 10 10 9
4 4 4 3 2 1 1 2 2 3 3 4 4 5 5 5 5 5 4 3 5 5 6 5 5 5 9 9 7 7 7 7 7 7 8 8 8 9 9 10 9 9 9 9
2 2 3 2 2 2 2 3 3 3 4 4 3 4 5 5 4 4 5 2 2 5 6 3 2 5 9 7 7 6 6 7 7 7 8 8 8 9 9 9 9 9 9 11
3 3 3 3 3 3 3 4 4 4 5 4 5 4 4 4 5 6 6 6 4 5 6 2 2 5 7 6 6 6 6 6 7 8 8 8 8 8 9 9 9 9 9 9
3 3 3 4 4 4 5 5 5 5 5 5 5 5 5 5 6 5 5 6 7 5 6 5 4 4 5 5 5 6 6 6 6 6 7 8 8 8 8 9 11 9 8 8
4 3 3 4 3 4 5 5 6 6 6 6 6 6 6 6 6 6 6 6 6 6 6 5 5 5 5 5 5 5 5 6 6 6 7 7 7 7 8 10 8 8 8 8
Wind_Direction
259 269 261 254 247 230 233 252 268 275 275 281 284 221 192 192 191 190 188 190 191 192 193 194 196 196 197 195 193 190 191 194 193 194 194 197 198 199 201 206 211 211 217 221
246 249 256 256 253 247 243 251 260 268 273 288 307 229 196 194 198 198 196 196 197 197 197 198 199 198 197 195 191 189 193 194 192 193 193 196 199 200 202 207 215 215 220 225
247 236 248 249 245 248 249 248 256 264 275 299 278 260 219 203 206 208 204 200 200 200 201 201 201 200 198 194 188 189 193 193 192 194 197 199 202 202 206 209 212 218 224 228
250 234 245 260 321 273 265 261 261 265 274 293 306 328 223 215 211 209 206 204 202 202 200 201 200 197 197 190 187 191 194 195 194 197 199 201 205 208 211 214 216 219 225 230
246 243 251 238 222 272 263 260 281 269 274 268 200 201 156 127 199 203 202 202 202 204 200 194 193 190 187 187 187 191 195 197 197 198 200 200 205 210 213 217 221 224 226 230
240 252 254 267 74 309 259 236 28 298 279 259 231 238 101 64 87 170 175 175 180 182 181 176 180 178 182 187 187 193 194 194 193 196 201 204 207 210 213 218 227 232 231 233
238 245 252 53 67 226 245 35 32 9 350 335 12 13 46 53 63 91 126 138 141 139 140 149 156 163 178 184 190 193 187 183 186 191 200 207 206 205 211 218 227 235 240 238
235 240 239 56 34 310 13 24 26 41 51 56 66 67 66 65 71 83 101 111 119 120 120 127 140 153 169 180 181 177 175 177 183 187 198 198 200 203 209 219 225 230 237 245
267 317 47 23 360 6 353 342 21 51 62 78 82 74 72 72 73 78 85 91 102 111 110 111 129 150 163 164 158 162 167 177 183 185 196 202 203 205 210 215 231 235 235 243
263 62 39 12 9 17 26 49 64 81 89 93 91 85 78 75 76 75 74 80 88 97 104 107 115 129 139 139 149 153 160 167 174 183 192 197 213 217 222 226 235 243 248 252
260 338 29 44 36 50 75 87 91 93 94 95 94 89 83 78 73 71 72 72 77 85 91 94 96 97 101 111 128 142 157 174 184 192 206 211 215 229 234 238 248 256 263 266
335 24 349 23 42 77 98 98 98 98 94 90 88 89 86 82 78 76 76 75 76 78 80 81 82 79 74 88 115 138 151 170 196 202 201 234 239 236 223 241 234 237 248 264
321 345 13 97 100 102 103 100 97 94 92 90 86 85 85 84 80 78 76 75 77 78 79 79 78 75 72 80 100 113 115 142 237 242 232 245 256 261 261 239 229 235 238 239
24 113 117 110 105 102 102 101 99 96 92 88 86 86 85 85 81 78 76 79 82 81 81 83 81 75 69 78 85 95 209 163 252 270 273 269 269 273 275 280 278 269 243 231
66 91 110 109 108 107 109 108 102 95 90 87 84 84 84 83 80 76 74 76 80 80 76 76 74 68 59 62 55 9 331 343 335 315 295 290 288 286 289 289 287 287 288 264
98 104 108 109 109 111 112 107 102 99 93 88 83 81 82 83 80 76 69 65 65 63 59 57 54 48 36 23 8 341 5 61 313 307 302 299 297 296 294 291 288 287 288 291
112 109 109 107 107 106 103 100 98 96 93 86 81 80 79 78 75 69 62 58 57 56 49 41 31 22 13 0 338 329 334 344 244 281 298 305 303 300 299 296 294 293 293 299
98 102 103 102 96 89 82 80 76 73 71 70 67 66 65 66 64 64 59 55 51 45 32 25 21 4 356 352 337 325 318 312 306 307 308 307 310 302 297 295 294 294 295 291
91 93 93 90 87 83 74 66 61 55 52 49 50 51 51 56 57 54 44 26 12 11 16 9 8 326 329 337 319 295 303 304 302 302 300 298 284 289 295 296 296 296 296 296
82 82 83 82 78 77 72 62 57 55 49 41 38 39 32 24 15 358 343 326 360 11 357 346 322 314 314 327 312 301 303 305 306 307 304 302 302 301 298 298 299 301 302 299
84 84 81 76 71 65 57 50 49 50 43 32 15 3 359 351 344 334 316 324 33 8 332 303 294 316 330 336 299 299 304 306 306 305 305 305 304 302 303 304 303 300 298 297
77 68 61 56 51 52 48 35 30 25 17 4 354 349 341 330 326 322 318 327 340 6 317 314 333 12 347 313 301 305 304 303 303 304 306 307 306 306 305 304 303 302 302 302
71 64 53 43 30 3 346 351 357 349 343 335 330 329 330 328 323 316 314 338 333 347 314 329 7 351 316 297 303 303 302 304 305 307 308 308 307 305 304 304 305 306 306 306
43 24 8 352 325 303 319 338 333 322 314 302 307 321 312 305 304 308 322 335 329 317 309 356 341 311 293 293 304 308 309 309 310 313 314 312 310 310 311 311 310 309 309 310
7 354 352 329 308 321 326 308 300 297 298 309 311 313 308 314 312 318 319 322 331 304 303 299 238 279 290 307 314 318 319 326 327 320 315 316 316 316 316 315 314 313 312 310
342 326 341 324 326 312 307 310 312 317 320 322 323 325 323 319 313 309 305 310 316 311 306 313 311 294 306 318 323 324 321 319 313 312 321 322 321 322 322 324 322 319 317 317
297 296 285 290 300 312 315 313 312 317 320 323 323 324 323 320 317 319 317 317 320 320 322 322 320 320 321 324 326 327 325 325 328 331 330 329 329 327 325 324 321 321 321 321